Regional Weather Roundup
Issued by NWS Pendleton, OR

Home | Current Version | Previous Version | Text Only | Print | Product List | Glossary On
Versions: 1 2 3 4 5 6 7 8 9 10 11 12 13 14 15 16 17 18 19 20 21 22 23 24 25 26 27 28 29 30 31 32 33 34 35 36 37 38 39 40 41 42 43 44 45 46 47 48 49 50
000
ASUS46 KPDT 211225
RWRPDT
PENDLETON REGIONAL WEATHER ROUNDUP
NATIONAL WEATHER SERVICE PENDLETON OREGON
500 AM PDT THU SEP 21 2017

NOTE: FAIR INDICATES FEW OR NO CLOUDS BELOW 12,000 FEET WITH NO
SIGNIFICANT WEATHER AND/OR OBSTRUCTIONS TO VISIBILITY.

# INDICATES UNOFFICIAL STATION AND DATA

WAZ520-211310-
EAST SLOPES OF WASHINGTON CASCADES

CITY            SKY/WX      TMP DP  RH  WIND    PRES   REMARKS
#BULLFROG       N/A         47  39  74  W3      N/A
#CLE ELUM HS    N/A         46  39  76  W3      29.78R
#CLE ELUM LAKE  N/A         41  37  86  CALM    29.81R
#EASTON DOT     N/A         42  39  89  N2      N/A
#ELK HTS DOT    N/A         46  46  100 SW2     N/A
#GLENWOOD       N/A         34  33  96  CALM    29.87R
#NELSON 3SW     N/A         43  37  79  CALM    30.03R
#NILE           N/A         36  34  92  CALM    29.12R
#TEANAWAY 4NE   N/A         39  36  89  CALM    N/A
#TROUT LAKE 1NE N/A         36  35  96  CALM    29.86R
#TROUT LAKE 1E  N/A         39  36  89  CALM    29.86R
$$

WAZ521-211310-
SIMCOE HIGHLANDS

CITY            SKY/WX      TMP DP  RH  WIND    PRES   REMARKS
#BICKLETON HS   N/A         40  36  85  W7      29.78S
#CENTERVILLE 1SWN/A         36  33  89  CALM    29.83R
#GOLDENDALE 1NE N/A         38  34  85  CALM    N/A
#GOLDENDALE 4W  N/A         34  30  85  CALM    29.88R
#GOODNOE HILLS  N/A         44  42  93  NW3     N/A
#LYLE 6NE       N/A         46  43  89  SW8     29.86R
#PITT 4SE       N/A         41  40  96  W6      29.88S
$$

WAZ026-211310-
KITTITAS VALLEY

CITY            SKY/WX      TMP DP  RH  WIND    PRES   REMARKS
ELLENSBURG AP   CLOUDY      49  38  66  NW13    29.80R WCI 44
6HR MIN TEMP:   47; 6HR MAX TEMP:   49;

#ELLENSBURG CWU N/A         45  37  73  CALM    29.76R
#ELLENSBURG 3NE N/A         47  39  74  N2      27.90R
#ELLENSBURG 1E  N/A         41  37  86  SE1     29.84R
#KITTITAS 3S    N/A         36  34  92  CALM    29.81R
#MANASTASH RDG  N/A         41  41  100 CALM    N/A
#ROCKY CYN DOT  N/A         47  37  68  NW5     N/A
#RYEGRASS DOT   N/A         39  35  85  S6      N/A
$$

WAZ027-211310-
YAKIMA VALLEY

CITY            SKY/WX      TMP DP  RH  WIND    PRES   REMARKS
SUNNYSIDE AP    MOCLDY      34  33  96  N3      29.84R
YAKIMA AIRPORT  CLOUDY      40  35  82  NE3     29.82R
6HR MIN TEMP:   36; 6HR MAX TEMP:   42;

YAKIMA-VAGABOND MOCLDY      42  35  76  CALM    29.80R
6HR MIN TEMP:   40; 6HR MAX TEMP:   45; 6HR PCP:  0.01;

#DONALD 2NE     N/A         45  22  40  NW1     29.83R
#GRANDVIEW      N/A         37  34  89  CALM    29.86R
#MABTON         N/A         37  35  92  CALM    29.83R
#MOXEE 2E       N/A         42  N/A N/A CALM    29.83R
#NACHES 2SW     N/A         47  39  74  W2      29.77S
#OUTLOOK DOT    N/A         37  37  100 CALM    29.80R
#PARKER DOT     N/A         44  37  76  SW1     29.81R
#TERRACE HTS    N/A         43  38  82  CALM    29.79R
#TOPPENISH      N/A         40  37  89  CALM    29.76R
#I82 S UMTANUM RN/A         39  33  79  NE6     N/A
#UNION GAP DOT  N/A         38  35  89  CALM    29.85R
#W YAKIMA       N/A         45  37  73  E1      29.83R
#WHITE SWAN 5E  N/A         36  34  92  CALM    29.84R
#WILEY CITY 3W  N/A         40  32  73  CALM    29.78S
#ZILLAH DOT     N/A         39  36  89  E2      N/A
$$

WAZ028-211310-
LOWER COLUMBIA BASIN...WASHINGTON

CITY            SKY/WX      TMP DP  RH  WIND    PRES   REMARKS
PASCO           CLEAR       44  41  89  CALM    29.83R
6HR MIN TEMP:   40; 6HR MAX TEMP:   50;

PROSSER AWOS    N/A         36  36  100 CALM    29.87R
RICHLAND AWOS   PTCLDY      46  42  86  SW3     29.83R
#BENTON CITY    N/A         41  37  86  CALM    29.75R
#CONNELL 5N     N/A         36  35  96  CALM    29.83R
#CONNELL 5NW    N/A         37  35  92  CALM    29.78R
#ELTOPIA 6NW    N/A         41  40  96  CALM    28.79R
#KAHLOTUS       N/A         41  39  93  CALM    29.83R
#KENNEWICK 3S   N/A         44  41  89  SW7     29.83R
#PATERSON       N/A         43  41  93  CALM    29.83R
#PROSSER DOT    N/A         37  36  96  CALM    29.84R
#SAGEMOOR 2W    N/A         42  39  89  CALM    29.69R
#TOUCHET 2S     N/A         48  40  74  N2      29.82R
#WEST PASCO     N/A         41  39  93  CALM    29.83R
$$

WAZ029-211310-
FOOTHILLS OF THE BLUES...WASHINGTON

CITY            SKY/WX      TMP DP  RH  WIND    PRES   REMARKS
WALLA WALLA AP  CLOUDY      49  41  74  S7      29.84R
6HR MIN TEMP:   47; 6HR MAX TEMP:   51;

#CLYDE 6NW      N/A         42  39  89  S5      29.82R
#DAYTON SCHOOL  N/A         45  36  70  S1      29.85R
#PLEASANT VIEW 1N/A         40  38  92  S7      29.85R
#PRESCOTT       N/A         42  38  86  CALM    29.83R
#WHITMAN COLLEGEN/A         48  41  77  S3      29.89R
#WAITSBURG 6SSE N/A         45  38  76  SE3     29.84R
#WALLA WALLA 5E N/A         48  43  83  SW7     N/A
#WHITMAN MISSIONN/A         45  40  82  CALM    29.85R
$$

WAZ030-211310-
BLUE MOUNTAINS...WASHINGTON

CITY            SKY/WX      TMP DP  RH  WIND    PRES   REMARKS
#DIXIE 5SE      N/A         42  38  86  S7      29.74R
$$

ORZ009-041-WAZ024-211310-
COLUMBIA RIVER GORGE

CITY            SKY/WX      TMP DP  RH  WIND    PRES   REMARKS
THE DALLES AP   MOCLDY      51  45  80  VRB6    29.85R
6HR MIN TEMP:   47; 6HR MAX TEMP:   53;

#CELILO DOT     N/A         53  42  66  SW6     N/A
#LYLE           N/A         52  47  83  NE9     29.86S
#MARYHILL       N/A         49  41  74  N17     N/A    WCI 43
#RUFUS DOT      N/A         53  N/A N/A W15     N/A
#SMITHVILLE     N/A         52  46  80  N3      29.80F

$$

ORZ510-211310-
NORTH CENTRAL OREGON

CITY            SKY/WX      TMP DP  RH  WIND    PRES   REMARKS
#ANTELOPE       N/A         41  38  89  CALM    29.74R
#CHENOWITH 1W   N/A         44  42  93  W20G26  N/A    WCI 36
#COW CYN RST AREN/A         39  38  96  SW5     N/A
#DUFUR          N/A         42  38  86  CALM    29.82R
#DUFUR 9E       N/A         43  38  82  W6      29.90R
#GRASS VALLEY 1SN/A         39  36  89  SW3     29.88R
#KENT DOT       N/A         38  32  79  W8      N/A
#MAUPIN SCHOOL  N/A         40  36  85  CALM    29.93R
#MORO SCHOOL    N/A         38  37  96  CALM    29.85R
#SHANIKO 4NW    N/A         38  34  85  SW2     29.83R
#TYGH VALLEY 2NEN/A         37  34  89  CALM    29.88R
#WAPANITIA AIRPON/A         41  37  86  CALM    29.88R
#WASCO DOT      N/A         42  38  86  CALM    N/A
#WASCO 5NE      N/A         43  38  82  SW6     29.84R
$$

ORZ511-211310-
CENTRAL OREGON

CITY            SKY/WX      TMP DP  RH  WIND    PRES   REMARKS
BEND AIRPORT    CLOUDY      37  36  96  CALM    29.88R
MADRAS AIRPORT  CLOUDY      N/A N/A N/A SE7     29.90R
PRINEVILLE AP   PTCLDY      34  32  92  CALM    29.88R
REDMOND AIRPORT PTCLDY      31  27  85  S3      29.87R
6HR MIN TEMP:   29; 6HR MAX TEMP:   43;

#ASHWOOD SCHOOL N/A         43  37  79  CALM    29.85R
#BEND 1SW       N/A         35  32  89  CALM    N/A
#BEND-AWBREY    N/A         38  35  89  S1      29.88R
#BEND-KIM LN    N/A         31  29  92  CALM    29.83R
#CULVER         N/A         36  32  85  CALM    29.77R
#CULVER 8W      N/A         32  31  96  CALM    29.88S
#LAKE BILLY CHINN/A         36  N/A N/A CALM    29.99R
#MADRAS 4S      N/A         39  18  42  S12     29.97R WCI 32
#POWELL BUTTE   N/A         39  34  82  W3      29.84R
#PRINEVILLE     N/A         37  34  89  CALM    29.96R
#PRINEVILLE 3N  N/A         35  32  89  CALM    29.87R
#WARM SPRINGS   N/A         37  34  89  CALM    29.74R

$$


ORZ509-211310-
EAST SLOPES OF OREGON CASCADES

CITY            SKY/WX      TMP DP  RH  WIND    PRES   REMARKS
SISTERS AWOS    N/A         41  32  70  SW6     N/A
#CAMP SHERMAN   N/A         29  26  88  CALM    29.98R
#LA PINE 4NW    N/A         33  30  89  CALM    29.92R
#LAVA BUTTE DOT N/A         34  31  89  SE2     N/A
#SISTERS ODOT   N/A         35  30  82  CALM    N/A
#SISTERS 3N     N/A         33  27  78  CALM    29.91R
#SUNRIVER       N/A         34  31  89  CALM    29.88R
#TUMALO 3W      N/A         36  32  85  W2      29.76R
#WANOGA BUTTE D N/A         30  26  85  CALM    N/A

$$

ORZ044-211310-
LOWER COLUMBIA BASIN...OREGON

CITY            SKY/WX      TMP DP  RH  WIND    PRES   REMARKS
HERMISTON       CLEAR       48  40  74  SW8     29.84R
6HR MIN TEMP:   45; 6HR MAX TEMP:   49;

#BOARDMAN SCHOOLN/A         43  40  89  CALM    29.85R
#BOARDMAN 8SW   N/A         42  39  89  S6      29.85R
#ECHO 8SW       N/A         47  39  74  SW3     29.85R
#I-84 EX 198 DOTN/A         45  39  79  E6      N/A
#IONE SCHOOL    N/A         48  30  49  S7      29.86R
#UMATILLA       N/A         44  38  79  CALM    29.78R
$$

ORZ507-211310-
NORTHERN FOOTHILLS OF THE BLUES

CITY            SKY/WX      TMP DP  RH  WIND    PRES   REMARKS
PENDLETON AIRPT CLOUDY      45  38  76  CALM    29.83R
6HR MIN TEMP:   44; 6HR MAX TEMP:   49;

#ADAMS 3WNW     N/A         45  39  79  CALM    29.84R
#ATHENA         N/A         45  41  86  CALM    29.87R
#CAYUSE         N/A         47  41  79  CALM    29.84R
#HELIX SCHOOL   N/A         43  39  86  S2      29.84R
#HELIX 3N       N/A         42  38  86  S7      29.82R
#HOLDMAN 5SE    N/A         42  38  86  SW1     29.83S
#HOLDMAN 6E     N/A         43  39  86  SW6     29.65R
#M-F GROVE ELEM N/A         48  39  71  CALM    29.82R
#M-FREEWATER 5SEN/A         48  40  74  CALM    29.84R
#PENDLETON DNTN N/A         46  39  76  CALM    29.83S
#PDT AQUATIC CTRN/A         46  39  76  CALM    29.84R
#PDT SUNRIDGE   N/A         47  39  74  CALM    29.85R
#PENDLETON 7NW  N/A         44  39  82  CALM    29.77F
#PILOT ROCK 1S  N/A         48  35  60  S9      29.84S
#PILOT ROCK     N/A         46  38  73  CALM    29.86R
#TUTUILLA       N/A         45  39  79  CALM    29.90R
#UMAPINE 2E     N/A         46  40  79  CALM    29.83R
#WESTON SCHOOL  N/A         46  38  73  N5      29.79R

$$

ORZ508-211310-
SOUTHERN FOOTHILLS OF THE BLUES

CITY            SKY/WX      TMP DP  RH  WIND    PRES   REMARKS
LEXINGTON       PTCLDY      43  37  79  SE7     29.88R
#AJAX           N/A         43  30  60  W8      30.01R
#FOSSIL SCHOOL  N/A         45  38  76  CALM    29.81R
#HEPPNER EOC    N/A         43  37  79  CALM    29.79R
#HEPPNER 4NE    N/A         41  36  82  SW3     29.84R
#LEXINGTON 2SE  N/A         43  37  79  SE5     29.82R
#MIKKALO        N/A         42  35  76  SE3     29.95R
#OLEX 4N        N/A         41  37  86  SW6     29.83S
#RUGGS 5NE      N/A         40  36  85  SW3     30.01S
#RUGGS 2SW      N/A         42  36  79  SW6     29.87R

$$

ORZ502-503-211310-
BLUE MOUNTAINS

CITY            SKY/WX      TMP DP  RH  WIND    PRES   REMARKS
MEACHAM         CLOUDY      39  36  89  CALM    29.82R
6HR MIN TEMP:   38; 6HR MAX TEMP:   40; 6HR PCP:  0.02;

#BATTLE MTN DOT N/A         35  32  89  CALM    N/A
#GRANITE        N/A         31  25  78  CALM    29.77R
#GREENHORN 9SW  N/A         34  33  96  CALM    26.05R
#HEPPNER 15SE   N/A         35  32  89  CALM    29.76R
#LADD CYN SMT   N/A         34  33  96  CALM    N/A
#LADD CREEK ODOTN/A         35  34  96  CALM    N/A
#LONG CREEK HS  N/A         39  38  96  CALM    N/A
#N POWDER DOT   N/A         35  33  92  SE1     N/A
#PIKES PEAK     N/A         39  36  89  N14     27.99S WCI 31
#TOLLGATE       N/A         33  32  96  S2      29.69R
#TROY SCHOOL    N/A         43  41  93  CALM    29.71R
#UKIAH          N/A         34  32  92  CALM    29.77R
#WESTON 4E      N/A         40  38  92  SW5     29.82R
$$

ORZ505-211310-
JOHN DAY BASIN

CITY            SKY/WX      TMP DP  RH  WIND    PRES   REMARKS
#JOHN DAY KJDY  N/A         43  N/A N/A CALM    28.86R
#ANTELOPE 9ESE  N/A         49  37  63  CALM    N/A
#DAYVILLE SCHOOLN/A         43  34  70  CALM    29.84R
#MITCHELL       N/A         42  41  96  CALM    30.03S
#MITCHELL 8NW   N/A         41  33  73  CALM    29.91R
#MONUMENT HS    N/A         40  35  82  CALM    29.83R
#MT. VERNON 5SE N/A         39  34  82  W1      29.79R
#SPRAY SCHOOL   N/A         44  N/A N/A CALM    N/A
$$

ORZ506-211310-
OCHOCO AND JOHN DAY HIGHLANDS

CITY            SKY/WX      TMP DP  RH  WIND    PRES   REMARKS
#HORSE RIDGE DO N/A         34  30  85  CALM    N/A
#PAULINA ODOT   N/A         38  33  82  W3      N/A
#PINE MTN OBS   N/A         30  28  92  NW1     N/A
#PRAIRIE CITY   N/A         39  36  89  CALM    29.97R
#SENECA         N/A         30  N/A N/A CALM    N/A
#SENECA 9NW     N/A         29  27  92  CALM    29.83R
$$

ORZ049-211310-
GRANDE RONDE VALLEY

CITY            SKY/WX      TMP DP  RH  WIND    PRES   REMARKS
LA GRANDE       CLOUDY      40  37  89  S3      29.84R
#COVE           N/A         42  41  96  CALM    29.87R
#COVE SCHOOL    N/A         42  39  89  CALM    29.86R
#COVE 6NW       N/A         41  38  89  CALM    29.85R
#ELGIN 3N       N/A         40  39  96  CALM    30.25R
#ELGIN 1E       N/A         42  37  82  CALM    N/A
#IMBLER SCHOOL  N/A         40  39  96  CALM    29.81R
#ISLAND CITY 4N N/A         45  44  96  CALM    29.91S
#LA GRANDE-LEFFEN/A         42  39  89  SW3     30.24R
#UNION 1S       N/A         40  38  92  CALM    29.85R
$$

ORZ050-211310-
WALLOWA COUNTY

CITY            SKY/WX      TMP DP  RH  WIND    PRES   REMARKS
JOSEPH AIRPORT  CLOUDY      37  37  100 CALM    29.83R FOG
#ENTERPRISE HS  N/A         39  37  92  CALM    29.72R
#IMNAHA SCHOOL  N/A         44  38  79  SE1     29.85R
#IMNAHA 10S     N/A         38  32  79  S3      29.84R
#JOSEPH         N/A         37  37  100 CALM    30.04R
#JOSEPH 3N      N/A         37  32  82  CALM    29.86R
#JOSEPH 3W      N/A         35  35  100 CALM    30.19S
#LOSTINE        N/A         37  34  89  CALM    29.66R
#LOSTINE 3SE    N/A         39  37  92  W1      29.86R
#MT HOWARD 8000 N/A         25  21  84  CALM    29.75S
#PROMISE 1S     N/A         38  35  89  SW2     29.93R
#WALLOWA LAKE   N/A         35  34  96  CALM    29.83R
#WALLOWA SCHOOL N/A         38  37  96  CALM    29.82R



$$



USA.gov is the U.S. government's official web portal to all federal, state and local government web resources and services.